CW5456 Hansville WA US current weather conditions

sailwx.info

Last reported at 2014-May-31 21:31 UTC.
Time now 2014-Jul-29 16:57 UTC

Location: N 47°55' W 122°35'.
View on Google Maps.

See reports from other nearby stations

  
Tides and Currents Weather Stations Pressure Air Temp Water Temp Dewpoint Dewpoint Depression Visibility Wind Speed Wind Dir Waves Ship Positions
date/time (UTC)wind fromknots sea level pressurealtimeterstation pressurevisibilityair tempwater tempwave heightnotes
2014-Jul-29 15:49 017 2 gusting 2 13.3
2014-Jul-29 15:39 017 1 gusting 3 13.3
2014-Jul-29 15:34 017 12.8
2014-Jul-29 15:24 018 12.8
2014-Jul-29 15:14 017 0 gusting 2 12.8
2014-Jul-29 14:55 017 12.2
2014-Jul-29 14:24 017 12.2
2014-Jul-29 14:09 017 12.2
2014-Jul-29 14:04 017 12.2
2014-Jul-29 14:00 017 12.2
2014-Jul-29 13:54 017 12.2
2014-Jul-29 13:44 017 12.2
2014-Jul-29 13:40 017 0 gusting 5 11.7
2014-Jul-29 13:24 005 0 gusting 3 11.7
2014-Jul-29 13:00 360 11.7
2014-Jul-29 12:55 360 11.7
2014-Jul-29 12:50 360 11.7
2014-Jul-29 12:29 360 11.7
2014-Jul-29 12:24 360 11.7
2014-Jul-29 12:15 360 11.7
2014-Jul-29 12:00 015 11.7
2014-Jul-29 11:49 015 11.7
2014-Jul-29 11:35 015 11.7
2014-Jul-29 11:30 015 11.7
2014-Jul-29 11:25 015 11.7
2014-Jul-29 11:20 015 11.7
2014-Jul-29 11:10 015 11.7
2014-Jul-29 11:05 015 11.7
2014-Jul-29 10:55 015 11.7
2014-Jul-29 10:35 015 1 gusting 1 12.2
2014-Jul-29 10:30 015 12.2
2014-Jul-29 09:55 015 1 gusting 2 12.2
2014-Jul-29 09:45 015 1 gusting 2 12.2
2014-Jul-29 09:40 015 1 gusting 2 12.8
2014-Jul-29 09:30 015 1 gusting 2 12.8
2014-Jul-29 09:25 015 0 gusting 0 12.8
2014-Jul-29 08:45 015 0 gusting 0 12.8
2014-Jul-29 08:35 015 13.3
2014-Jul-29 08:30 015 13.3
2014-Jul-29 08:25 015 13.3
2014-Jul-29 08:20 015 13.3
2014-Jul-29 07:55 015 13.3
2014-Jul-29 07:50 015 13.3
2014-Jul-29 07:45 015 13.3
2014-Jul-29 07:35 015 0 gusting 1 13.3
2014-Jul-29 07:25 015 0 gusting 1 13.9
2014-Jul-29 07:15 015 13.9
2014-Jul-29 07:10 015 13.3
2014-Jul-29 06:55 348 13.9
2014-Jul-29 06:20 199 0 gusting 3 13.9
2014-Jul-29 06:15 199 2 gusting 3 13.9
2014-Jul-29 05:44 199 3 gusting 5 14.4
2014-Jul-29 05:34 198 3 gusting 6 14.4
2014-Jul-29 05:25 201 3 gusting 6 15.0
2014-Jul-29 05:14 194 3 gusting 3 15.6
2014-Jul-29 05:09 194 2 gusting 3 15.6
2014-Jul-29 05:04 011 2 gusting 3 15.6
2014-Jul-29 04:49 011 0 gusting 1 16.7
2014-Jul-29 04:09 343 2 gusting 5 17.2
2014-Jul-29 04:04 343 5 gusting 6 17.2
2014-Jul-29 03:49 341 5 gusting 6 17.2
2014-Jul-29 03:39 341 3 gusting 6 17.8
2014-Jul-29 03:34 323 2 gusting 6 17.2
2014-Jul-29 03:24 326 0 gusting 5 17.2
2014-Jul-29 03:14 330 17.8
2014-Jul-29 03:04 330 1 gusting 5 17.8
2014-Jul-29 02:49 303 0 gusting 5 17.2
2014-Jul-29 02:39 342 2 gusting 2 16.7
2014-Jul-29 02:14 340 15.6
2014-Jul-29 02:09 340 1 gusting 6 15.6
2014-Jul-29 02:04 336 5 gusting 6 15.6
2014-Jul-29 01:54 005 2 gusting 6 15.6
2014-Jul-29 01:44 360 6 gusting 11 16.1
2014-Jul-29 01:29 342 8 gusting 8 16.1
2014-Jul-28 21:45 336 8 gusting 8 18.9
2014-Jul-28 21:00 286 6 gusting 9 18.3
2014-Jul-28 20:40 265 3 gusting 10 18.9
2014-Jul-28 20:35 010 5 gusting 10 18.9
2014-Jul-28 20:30 331 5 gusting 10 18.9
2014-Jul-28 20:25 305 6 gusting 12 18.3
2014-Jul-28 20:20 009 9 gusting 12 18.3
2014-Jul-28 20:10 346 8 gusting 9 18.3
2014-Jul-28 19:55 342 5 gusting 7 19.4
2014-Jul-28 19:50 005 2 gusting 7 19.4
2014-Jul-28 19:45 323 2 gusting 6 19.4
2014-Jul-28 19:05 344 2 gusting 6 17.8
2014-Jul-28 18:55 355 2 gusting 6 17.8
2014-Jul-28 18:44 346 1 gusting 5 17.2
2014-Jul-28 18:34 349 3 gusting 5 16.7
2014-Jul-28 18:24 009 2 gusting 3 16.1
2014-Jul-28 18:09 335 2 gusting 5 15.6
2014-Jul-28 17:59 302 3 gusting 7 15.6
2014-Jul-28 17:49 321 6 gusting 7 15.0
2014-Jul-28 17:34 360 2 gusting 3 15.0
2014-Jul-28 17:19 325 2 gusting 3 15.0
2014-Jul-28 17:14 325 2 gusting 3 15.6
2014-Jul-28 17:09 325 2 gusting 3 15.6
2014-Jul-28 17:04 313 1 gusting 3 15.6
2014-Jul-28 16:54 307 15.6
2014-Jul-28 16:49 308 15.0
2014-Jul-28 16:39 308 1 gusting 1 15.0
2014-Jul-28 16:29 302 0 gusting 2 15.0
2014-Jul-28 16:24 302 1 gusting 2 15.0
2014-Jul-28 16:04 265 0 gusting 2 15.0
2014-Jul-28 15:54 258 1 gusting 2 15.0
2014-Jul-28 15:39 257 0 gusting 2 15.0
2014-Jul-28 15:34 225 0 gusting 2 15.0
2014-Jul-28 15:29 224 0 gusting 1 15.0
2014-Jul-28 15:14 190 0 gusting 1 14.4
2014-Jul-28 15:09 190 14.4
2014-Jul-28 14:49 190 14.4
2014-Jul-28 14:39 190 1 gusting 3 13.9
2014-Jul-28 14:34 190 2 gusting 3 13.9
2014-Jul-28 14:29 188 2 gusting 5 13.3
2014-Jul-28 14:19 199 3 gusting 6 13.3
2014-Jul-28 14:14 196 3 gusting 5 13.3
2014-Jul-28 14:09 200 5 gusting 5 13.3
2014-Jul-28 13:14 230 12.2
2014-Jul-28 13:09 230 12.2
2014-Jul-28 13:04 230 11.7
2014-Jul-28 12:59 230 11.7
2014-Jul-28 12:49 230 12.2
2014-Jul-28 12:39 230 12.2
2014-Jul-28 12:04 230 0 gusting 1 12.2
2014-Jul-28 11:59 229 12.2
2014-Jul-28 11:49 229 12.2
2014-Jul-28 11:30 201 12.2
2014-Jul-28 11:19 200 1 gusting 1 12.2
2014-Jul-28 11:09 201 1 gusting 3 12.2
2014-Jul-28 11:04 201 1 gusting 3 12.2
2014-Jul-28 11:00 201 2 gusting 5 12.2
2014-Jul-28 10:54 201 3 gusting 5 12.2
2014-Jul-28 10:44 200 3 gusting 3 12.2
2014-Jul-28 10:05 200 2 gusting 5 12.2
2014-Jul-28 09:54 200 3 gusting 5 12.2
2014-Jul-28 09:50 200 3 gusting 5 12.2
2014-Jul-28 09:44 201 3 gusting 3 12.2
2014-Jul-28 09:40 213 2 gusting 2 12.2
2014-Jul-28 09:29 213 1 gusting 3 12.8
2014-Jul-28 09:25 213 2 gusting 5 12.8
2014-Jul-28 08:54 211 3 gusting 5 12.8
2014-Jul-28 08:50 211 3 gusting 5 12.8
2014-Jul-28 08:34 211 2 gusting 2 12.8
2014-Jul-28 08:25 212 1 gusting 2 12.8
2014-Jul-28 08:15 212 1 gusting 2 12.8
2014-Jul-28 08:10 211 0 gusting 1 12.8
2014-Jul-28 07:55 212 2 gusting 2 13.3
2014-Jul-28 07:45 212 2 gusting 3 13.3
2014-Jul-28 07:25 213 5 gusting 5 13.3
2014-Jul-28 07:15 211 5 gusting 5 13.3
2014-Jul-28 07:10 209 3 gusting 5 13.9
2014-Jul-28 07:05 209 2 gusting 5 13.9
2014-Jul-28 06:55 200 2 gusting 3 13.9
2014-Jul-28 06:50 201 0 gusting 5 13.9
2014-Jul-28 06:45 201 2 gusting 5 13.9
2014-Jul-28 06:10 005 0 gusting 1 15.0
2014-Jul-28 06:05 360 15.6
2014-Jul-28 06:00 005 15.6
2014-Jul-28 05:55 360 16.1
2014-Jul-28 05:40 360 0 gusting 2 16.1
2014-Jul-28 05:25 016 2 gusting 3 16.1
2014-Jul-28 05:15 032 3 gusting 6 16.1
2014-Jul-28 05:05 026 2 gusting 3 16.1
2014-Jul-28 04:50 024 1 gusting 3 16.1
2014-Jul-28 04:35 005 2 gusting 6 16.1
2014-Jul-28 04:30 322 5 gusting 6 16.1
2014-Jul-28 04:25 355 5 gusting 6 15.6
2014-Jul-28 04:15 355 15.6
2014-Jul-28 04:10 309 15.6
2014-Jul-28 03:55 332 0 gusting 3 15.6
2014-Jul-28 03:30 011 0 gusting 6 15.6
2014-Jul-28 03:25 338 5 gusting 6 16.1
2014-Jul-28 03:20 323 16.1
2014-Jul-28 03:15 355 6 gusting 8 16.1
2014-Jul-28 02:55 360 6 gusting 9 16.1
2014-Jul-28 02:39 334 8 gusting 13 16.1
2014-Jul-28 02:24 345 10 gusting 12 15.6
2014-Jul-28 02:04 350 7 gusting 13 15.6
2014-Jul-28 01:54 342 10 gusting 13 15.6
2014-Jul-28 01:49 360 9 gusting 16 15.6
2014-Jul-28 01:44 355 9 gusting 16 15.6
2014-Jul-28 01:39 325 16 gusting 16 16.1
2014-Jul-28 01:34 338 12 gusting 16 16.1
2014-Jul-28 01:29 342 10 gusting 16 16.1
2014-Jul-28 01:09 347 12 gusting 14 16.7
2014-Jul-28 01:04 340 13 gusting 14 16.7
2014-Jul-28 00:59 360 11 gusting 15 17.2
2014-Jul-28 00:54 335 12 gusting 15 17.2
2014-Jul-28 00:24 010 11 gusting 15 18.3
2014-Jul-28 00:14 328 10 gusting 12 18.3
2014-Jul-27 23:59 344 0 gusting 8 18.3
2014-Jul-27 23:54 308 2 gusting 8 18.3
2014-Jul-27 23:44 005 6 gusting 11 18.3
2014-Jul-27 23:29 327 5 gusting 6 17.8
2014-Jul-27 23:19 334 5 gusting 6 17.8
2014-Jul-27 23:14 318 3 gusting 6 18.3
2014-Jul-27 23:09 334 3 gusting 6 17.8
2014-Jul-27 22:49 341 6 gusting 7 17.8
2014-Jul-27 22:34 327 5 gusting 10 17.2
2014-Jul-27 22:29 014 8 gusting 10 17.2
2014-Jul-27 22:24 360 5 gusting 10 17.2
2014-Jul-27 21:59 005 6 gusting 7 17.8
2014-Jul-27 21:39 024 6 gusting 6 17.8
2014-Jul-27 21:29 360 0 gusting 7 17.2
2014-Jul-27 21:19 360 6 gusting 6 17.2
2014-Jul-27 21:09 321 3 gusting 6 17.2
2014-Jul-27 20:54 010 6 gusting 12 17.2
2014-Jul-27 20:44 005 8 gusting 9 16.7
2014-Jul-27 20:35 005 6 gusting 11 16.7
2014-Jul-27 20:14 345 6 gusting 10 16.7
2014-Jul-27 20:09 330 3 gusting 10 16.7
2014-Jul-27 19:54 306 2 gusting 7 16.7
2014-Jul-27 19:44 333 3 gusting 7 16.7
2014-Jul-27 19:40 338 6 gusting 8 16.7
2014-Jul-27 19:35 343 2 gusting 9 16.7
2014-Jul-27 19:24 343 3 gusting 6 16.1
2014-Jul-27 19:15 338 5 gusting 6 16.7
2014-Jul-27 18:49 011 6 gusting 7 16.1
2014-Jul-27 18:30 303 3 gusting 10 15.6
2014-Jul-27 18:25 009 5 gusting 8 15.6
2014-Jul-27 17:54 340 9 gusting 12 14.4
2014-Jul-27 17:40 360 8 gusting 12 15.0
2014-Jul-27 17:30 005 9 gusting 13 15.0
2014-Jul-27 17:20 011 10 gusting 14 15.0
2014-Jul-27 17:15 009 12 gusting 16 15.0
2014-Jul-27 17:00 019 12 gusting 13 15.0
2014-Jul-27 16:50 360 5 gusting 7 14.4
2014-Jul-27 16:40 005 6 gusting 8 14.4
2014-Jul-27 16:35 360 5 gusting 7 14.4
2014-Jul-27 16:15 355 2 gusting 6 13.9
2014-Jul-27 16:10 355 2 gusting 6 13.9